Вергулевка

Украина / Луганская область     48°23′43″N   38°29′31″E
темп.,
°C
ветер,
м/с
пор.,
м/с
влажн.,
%
обл.,
%
осадки,
мм/ч
давл.,
гПа
погр.,
м
5 марта, пт
пт523:00+3юз9187667 0.0 1012678
02:00+2юз9168663 0.0 1011536
05:00+2юз8159096 0.0 1010522
08:00+3зюз7129397 0.0 1011537
11:00+4зюз61089100 0.0 1012635
14:00+4зюз5896100 0.8 1012539
17:00+3зюз3699100 1.9 1013239
20:00+2с2498100 3.2 1014159
6 марта, сб
сб623:00+1с2398100 1.4 1014186
02:00+1св2398100 1.9 1014182
05:000ссв3598100 0.6 1013213
08:00−1ссв6997100 3.6 1014493
11:00−1ссв6997100 1.7 1014670
14:00−1с6995100 3.1 1014708
17:00−1сз61078100 0.9 1016794
20:00−5сз7137769 0.9 1019657
7 марта, вс
вс723:00−5сз612800 0.0 1021611
02:00−6зсз49840 0.0 1023367
05:00−6з48840 0.0 1023255
08:00−4зюз69800 0.0 1023638
11:00−1зюз811680 0.0 10211327
14:00+1зюз9135948 0.0 10181396
17:00−1зюз7146484 0.0 1016994
20:00−1зюз9166854 0.0 10151074
8 марта, пн
пн823:00−1зюз9166954 0.0 1014878
02:00−1зюз9167246 0.0 1013667
05:00−1зюз8157656 0.0 1011671
08:000зюз9137860 0.0 10111086
11:00+1зюз91372100 0.1 10111294
14:00+2з91377100 0.1 10111216
17:00+1з7128399 0.1 1011847
20:00−2ссз597999 1.3 1014859
9 марта, вт
вт923:00−4ссз267596 0.0 1016474
02:00−4с126198 0.0 1016375
05:00−5з1160100 0.0 1017230
08:00−3зсз344461 0.0 1018596
11:00−1зсз56450 0.0 10181237
14:000зсз57460 0.0 10181610
17:00−2зсз476474 0.1 1019880
20:00−3ссз577283 0.2 1022858